Regional Weather Roundup
Issued by NWS State College, PA

Current Version | Previous Version | Text Only | Print | Product List | Glossary On
Versions: 1 2 3 4 5 6 7 8 9 10 11 12 13 14 15 16 17 18 19 20 21 22 23 24 25 26 27 28 29 30 31 32 33 34 35 36 37 38 39 40 41 42 43 44 45 46 47 48 49 50
000
ASUS41 KCTP 241010
RWRCTP

REGIONAL WEATHER ROUNDUP
NATIONAL WEATHER SERVICE STATE COLLEGE PA
600 AM EDT WED AUG 24 2016

Note: "fair" indicates few or no clouds below 12,000 feet with no
significant weather and/or obstructions to visibility.

* = STATION THAT DOES NOT REPORT PRECIPITATION /E.G. RAIN...SNOW...ETC/
    THUNDER OR FOG.

PAZ002>004-007>009-013>016-020>023-029>032-241100-
WESTERN PENNSYLVANIA

CITY           SKY/WX    TMP DP  RH WIND       PRES   REMARKS
ERIE           CLEAR     64  58  80 S8        30.22R
MEADVILLE      CLEAR     59  55  87 CALM      30.25S
FRANKLIN*      CLEAR     55  52  88 CALM      30.27R
NEW CASTLE     FAIR      57  56  96 CALM      30.25S FOG
BEAVER COUNTY  NOT AVBL
BUTLER*        NOT AVBL
PITTSBURGH INT PTCLDY    61  56  83 CALM      30.24S
PITTSBURGH     CLEAR     62  59  90 S5        30.24S FOG
INDIANA*       MOCLDY    59  59 100 CALM      30.29S
LATROBE        CLEAR     57  57 100 CALM      30.26S
WASHINGTON CO*   N/A     54  52  94 CALM      30.25S VSB 1/2
$$

PAZ004>006-010>012-017>019-024>028-033>037-041-042-045-046-049>053-241100-
CENTRAL PENNSYLVANIA

CITY           SKY/WX    TMP DP  RH WIND       PRES   REMARKS
BRADFORD       CLEAR     50  50 100 SE3       30.30R
DUBOIS         CLEAR     55  52  89 E3        30.28S
CLEARFIELD     CLEAR     53  53 100 CALM      30.29F FOG
JOHNSTOWN      CLEAR     62  59  90 SW3       30.31R
ALTOONA        CLEAR     56  56 100 CALM      30.30S
STATE COLLEGE  CLEAR     57  57 100 CALM      30.29S
WILLIAMSPORT   PTCLDY    59  56  89 CALM      30.28R
SELINSGROVE    PTCLDY    56  56 100 CALM      30.29R FOG
FT INDIANTOWN  PTCLDY    57  57  98 CALM      30.29R
CAPITAL CITY   CLEAR     62  58  86 SW5       30.28R
HARRISBURG     CLEAR     64  62  93 E3        30.28R
YORK           CLEAR     55  54  96 CALM      30.29R
$$

PAZ038>040-043-044-047-048-054-055-060>062-067>071-241100-
EASTERN PENNSYLVANIA

CITY           SKY/WX    TMP DP  RH WIND       PRES   REMARKS
SCRANTON       CLEAR     58  55  90 SE3       30.29R
MOUNT POCONO   CLEAR     53  51  93 NW6       30.32R
ALLENTOWN      CLEAR     57  55  93 NW3       30.28S
QUAKERTOWN*    SUNNY     55  55 100 CALM      30.30R
READING        PTCLDY    61  57  87 CALM      30.28R
LANCASTER      CLEAR     60  60 100 CALM      30.29R FOG
COATESVILLE    SUNNY     63  59  88 W3        30.31R
POTTSTOWN      CLEAR     57  56  96 CALM      30.30S
BLUE BELL      CLEAR     54  54 100 CALM      30.28S
DOYLESTOWN     CLEAR     61  59  93 CALM      30.28S
WILLOW GROVE   NOT AVBL
NORTH PHILA    CLEAR     62  59  90 CALM      30.30R
PHILADELPHIA   CLEAR     68  60  75 SW5       30.29S
$$



USA.gov is the U.S. government's official web portal to all federal, state and local government web resources and services.